Flag for United Kingdom Past Weather in Lerwick (Shetland Islands), Scotland, United Kingdom — Yesterday and Last 2 Weeks

47 °F

Passing clouds.

Feels Like: 38 °F
Forecast: 48 / 52 °F
Wind: 26 mph from West

Location: Lerwick

Current Time: Oct 28, 2016 at 10:35:22 PM

Latest Report: Oct 28, 2016 at 9:00 PM

Visibility: 14 mi

Pressure: 30.23 "Hg

Humidity: 67%

Dew Point: 36 °F

Location of Lerwick (Shetland Islands)Location

Past Weather in Lerwick (Shetland Islands) — Graph


Lerwick (Shetland Islands) Temperature Yesterday

Maximum temperature yesterday: 52 °F (at 4:00 AM)
Minimum temperature yesterday: 45 °F (at 10:00 PM)
Average temperature yesterday: 49 °F

High & Low Weather Summary for the Past Weeks

High54 °F (Oct 18, 1:00 PM)100% (Oct 20, 2:00 AM)30.31 "Hg (Oct 20, 2:00 AM)
Low40 °F (Oct 21, 6:00 AM)59% (Oct 28, 12:00 PM)29.70 "Hg (Oct 17, 9:00 PM)
Average48 °F85%30.06 "Hg
* Reported Oct 13 9:00 PM — Oct 28 9:00 PM, Lerwick (Shetland Islands), Weather by CustomWeather, © 2016

Note: Actual official high and low records may vary slightly from our data, if they occured in-between our weather recording intervals... More about our weather records


Lerwick (Shetland Islands) Weather History for the Previous 24 Hours

Scroll right to see more
Time TempWeatherWind HumidityBarometerVisibility
9:00 PM
Fri, Oct 28
47 °FPassing clouds.26 mph67%30.23 "Hg14 mi
8:00 PM46 °FPassing clouds.32 mph70%30.21 "Hg16 mi
7:00 PM46 °FPassing clouds.31 mph70%30.20 "Hg17 mi
6:00 PM47 °FPassing clouds.30 mph64%30.19 "Hg12 mi
5:00 PM47 °FOvercast.32 mph66%30.17 "Hg9 mi
4:00 PM47 °FCool.33 mph62%30.14 "Hg15 mi
3:00 PM47 °FOvercast.33 mph63%30.13 "Hg6 mi
2:00 PM45 °FPassing clouds.31 mph77%30.11 "Hg16 mi
1:00 PM48 °FScattered clouds.33 mph64%30.09 "Hg12 mi
12:00 PM48 °FSprinkles. Overcast.35 mph59%30.07 "Hg12 mi
11:00 AM47 °FScattered clouds.31 mph65%30.05 "Hg16 mi
10:00 AM46 °FScattered clouds.35 mph63%30.02 "Hg11 mi
9:00 AM47 °FScattered clouds.35 mph61%29.99 "Hg6 mi
8:00 AM47 °FPassing clouds.33 mph65%29.96 "Hg14 mi
7:00 AM46 °FOvercast.32 mph69%29.95 "Hg14 mi
6:00 AM43 °FSprinkles. Overcast.44 mph81%29.94 "Hg3 mi
5:00 AM47 °FCool.33 mph62%29.89 "Hg16 mi
4:00 AM46 °FPassing clouds.31 mph69%29.89 "Hg15 mi
3:00 AM44 °FOvercast.35 mph80%29.88 "Hg16 mi
2:00 AM45 °FPassing clouds.29 mph77%29.88 "Hg14 mi
1:00 AM47 °FOvercast.29 mph67%29.86 "Hg16 mi
12:00 AM46 °FPassing clouds.35 mph69%29.85 "Hg22 mi
11:00 PM
Thu, Oct 27
45 °FPassing clouds.30 mph80%29.83 "Hg7 mi
10:00 PM45 °FPassing clouds.24 mph82%29.81 "Hg15 mi
Weather by CustomWeather, © 2016

See weather overviewHow to use our weather pages